Zurück zum Katalog

STARLINK-31325

AktivKommunikationVLEO
NORAD 59165·PAYLOAD·🇺🇸 United States

Gestartet Mar 4, 2024 von Cape Canaveral Space Force Station

Loading…

Nächste Überflüge (nächste 24 Stunden)

TLE

AktuellSource: CelesTrak SupGP

Epoche: Sep 15, 2026, 02:47 UTC

1 59165C 24044P   26258.11645833  .00056367  00000+0  20417-2 0  2584
2 59165  42.9997 117.1272 0001566 276.0188 215.7809 15.27548739    13

Verfolge STARLINK-31325 in Echtzeit mit AllMySat

Download on the App Store